When you browse on this site, cookies collect data to enhance your experience and personalize the content and advertising you see.
Visit our Privacy Policy to learn more. By continuing to use the site, you agree to this use of cookies and data.
EN

Hourly Weather Gogolevka

Today, 24 September, Thursday

Time Temperature Precipitation Wind Pressure Humidity
00:00 +7°C° 0 mm 3 mps 734 mmHg 80%
01:00 +5°C° 0 mm 3 mps 734 mmHg 82%
02:00 +5°C° 0 mm 3 mps 735 mmHg 84%
03:00 +5°C° 0 mm 2 mps 736 mmHg 87%
04:00 +5°C° 0 mm 2 mps 737 mmHg 89%
05:00 +5°C° 0 mm 2 mps 737 mmHg 88%
06:00 +5°C° 0 mm 2 mps 738 mmHg 88%
07:00 +5°C° 0 mm 2 mps 738 mmHg 87%
08:00 +6°C° 0 mm 2 mps 739 mmHg 79%
09:00 +8°C° 0 mm 3 mps 739 mmHg 72%
10:00 +9°C° 0 mm 3 mps 740 mmHg 64%
11:00 +10°C° 0 mm 3 mps 740 mmHg 60%
12:00 +11°C° 0 mm 3 mps 740 mmHg 55%
13:00 +12°C° 0 mm 3 mps 740 mmHg 51%
14:00 +12°C° 0 mm 3 mps 741 mmHg 52%
15:00 +12°C° 0 mm 3 mps 741 mmHg 52%
16:00 +12°C° 0 mm 3 mps 741 mmHg 53%
17:00 +11°C° 0 mm 3 mps 741 mmHg 59%
18:00 +9°C° 0 mm 2 mps 741 mmHg 66%
19:00 +8°C° 0 mm 2 mps 742 mmHg 72%
20:00 +7°C° 0 mm 2 mps 742 mmHg 74%
21:00 +7°C° 0 mm 2 mps 742 mmHg 76%
22:00 +6°C° 0 mm 2 mps 743 mmHg 78%
23:00 +6°C° 0 mm 2 mps 743 mmHg 78%

Tomorrow, 25 September, Friday

Time Temperature Precipitation Wind Pressure Humidity
00:00 +5°C° 0 mm 2 mps 743 mmHg 79%
01:00 +6°C° 0 mm 1 mps 743 mmHg 79%
02:00 +5°C° 0 mm 2 mps 743 mmHg 79%
03:00 +4°C° 0 mm 2 mps 743 mmHg 79%
04:00 +4°C° 0 mm 2 mps 744 mmHg 79%
05:00 +4°C° 0 mm 2 mps 744 mmHg 79%
06:00 +4°C° 0 mm 2 mps 744 mmHg 79%
07:00 +4°C° 0 mm 2 mps 744 mmHg 79%
08:00 +6°C° 0 mm 2 mps 744 mmHg 73%
09:00 +8°C° 0 mm 2 mps 744 mmHg 67%
10:00 +10°C° 0 mm 2 mps 744 mmHg 61%
11:00 +12°C° 0 mm 2 mps 744 mmHg 56%
12:00 +13°C° 0 mm 2 mps 744 mmHg 52%
13:00 +14°C° 0 mm 2 mps 744 mmHg 47%
14:00 +15°C° 0 mm 2 mps 744 mmHg 46%
15:00 +15°C° 0 mm 2 mps 744 mmHg 46%
16:00 +15°C° 0 mm 1 mps 744 mmHg 45%
17:00 +14°C° 0 mm 2 mps 744 mmHg 51%
18:00 +12°C° 0 mm 2 mps 744 mmHg 57%
19:00 +9°C° 0 mm 2 mps 744 mmHg 62%
20:00 +9°C° 0 mm 2 mps 744 mmHg 64%
21:00 +8°C° 0 mm 2 mps 744 mmHg 66%
22:00 +8°C° 0 mm 2 mps 744 mmHg 68%
23:00 +9°C° 0 mm 1 mps 744 mmHg 69%

Day after tomorrow, 26 September, Saturday

Time Temperature Precipitation Wind Pressure Humidity
00:00 +8°C° 0 mm 1 mps 744 mmHg 70%
01:00 +8°C° 0 mm 1 mps 744 mmHg 70%
02:00 +8°C° 0 mm 1 mps 745 mmHg 69%
03:00 +7°C° 0 mm 1 mps 745 mmHg 68%
04:00 +7°C° 0 mm 1 mps 745 mmHg 67%
05:00 +7°C° 0 mm 1 mps 745 mmHg 67%
06:00 +7°C° 0 mm 1 mps 745 mmHg 67%
07:00 +7°C° 0 mm 1 mps 745 mmHg 67%
08:00 +9°C° 0 mm 1 mps 746 mmHg 62%
09:00 +10°C° 0 mm 2 mps 746 mmHg 56%
10:00 +12°C° 0 mm 2 mps 746 mmHg 51%
11:00 +13°C° 0 mm 2 mps 746 mmHg 48%
12:00 +14°C° 0 mm 2 mps 746 mmHg 45%
13:00 +15°C° 0 mm 2 mps 746 mmHg 43%
14:00 +15°C° 0 mm 2 mps 746 mmHg 43%
15:00 +16°C° 0 mm 2 mps 746 mmHg 44%
16:00 +16°C° 0 mm 1 mps 746 mmHg 45%
17:00 +14°C° 0 mm 2 mps 746 mmHg 50%
18:00 +13°C° 0 mm 2 mps 746 mmHg 56%
19:00 +10°C° 0 mm 2 mps 746 mmHg 62%
20:00 +10°C° 0 mm 2 mps 746 mmHg 64%
21:00 +9°C° 0 mm 2 mps 746 mmHg 66%
22:00 +9°C° 0 mm 2 mps 746 mmHg 68%
23:00 +9°C° 0 mm 1 mps 746 mmHg 70%

27 September, Sunday

Time Temperature Precipitation Wind Pressure Humidity
00:00 +9°C° 0 mm 1 mps 746 mmHg 72%
01:00 +8°C° 0 mm 1 mps 746 mmHg 73%
02:00 +8°C° 0 mm 1 mps 747 mmHg 75%
03:00 +8°C° 0 mm 1 mps 747 mmHg 77%
04:00 +7°C° 0 mm 0 mps 747 mmHg 79%
05:00 +7°C° 0 mm 0 mps 747 mmHg 78%
06:00 +7°C° 0 mm 0 mps 747 mmHg 76%
07:00 +7°C° 0 mm 0 mps 747 mmHg 74%
08:00 +9°C° 0 mm 1 mps 747 mmHg 67%
09:00 +11°C° 0 mm 1 mps 747 mmHg 60%
10:00 +13°C° 0 mm 1 mps 747 mmHg 52%
11:00 +14°C° 0 mm 1 mps 747 mmHg 50%
12:00 +15°C° 0 mm 1 mps 747 mmHg 47%
13:00 +15°C° 0 mm 0 mps 747 mmHg 45%
14:00 +15°C° 0 mm 0 mps 747 mmHg 45%
15:00 +15°C° 0 mm 0 mps 747 mmHg 45%
16:00 +16°C° 0 mm 1 mps 747 mmHg 44%
17:00 +14°C° 0 mm 1 mps 747 mmHg 50%
18:00 +12°C° 0 mm 0 mps 747 mmHg 55%
19:00 +10°C° 0 mm 0 mps 746 mmHg 60%
20:00 +10°C° 0 mm 0 mps 746 mmHg 62%
21:00 +10°C° 0 mm 0 mps 746 mmHg 63%
22:00 +9°C° 0 mm 0 mps 746 mmHg 65%
23:00 +9°C° 0 mm 0 mps 746 mmHg 66%

28 September, Monday

Time Temperature Precipitation Wind Pressure Humidity
00:00 +9°C° 0 mm 0 mps 747 mmHg 67%
01:00 +9°C° 0 mm 0 mps 747 mmHg 69%
02:00 +9°C° 0 mm 0 mps 747 mmHg 70%
03:00 +8°C° 0 mm 0 mps 747 mmHg 71%
04:00 +8°C° 0 mm 0 mps 747 mmHg 72%
05:00 +8°C° 0 mm 0 mps 747 mmHg 73%
06:00 +8°C° 0 mm 0 mps 747 mmHg 73%
07:00 +8°C° 0 mm 0 mps 747 mmHg 74%
08:00 +10°C° 0 mm 0 mps 747 mmHg 70%
09:00 +11°C° 0 mm 0 mps 747 mmHg 65%
10:00 +12°C° 0 mm 0 mps 747 mmHg 61%
11:00 +13°C° 0 mm 0 mps 747 mmHg 58%
12:00 +15°C° 0 mm 1 mps 747 mmHg 56%
13:00 +16°C° 0 mm 1 mps 747 mmHg 53%
14:00 +16°C° 0 mm 1 mps 747 mmHg 54%
15:00 +16°C° 0 mm 1 mps 746 mmHg 54%
16:00 +16°C° 0 mm 1 mps 746 mmHg 55%
17:00 +14°C° 0 mm 1 mps 746 mmHg 61%
18:00 +13°C° 0 mm 1 mps 746 mmHg 66%
19:00 +11°C° 0 mm 0 mps 746 mmHg 72%
20:00 +10°C° 0 mm 0 mps 746 mmHg 74%
21:00 +11°C° 0 mm 1 mps 746 mmHg 76%
22:00 +10°C° 0 mm 1 mps 746 mmHg 78%
23:00 +10°C° 0 mm 1 mps 746 mmHg 79%

29 September, Tuesday

Time Temperature Precipitation Wind Pressure Humidity
00:00 +9°C° 0 mm 1 mps 746 mmHg 80%
01:00 +9°C° 0 mm 1 mps 746 mmHg 81%
02:00 +9°C° 0 mm 1 mps 746 mmHg 82%
03:00 +9°C° 0 mm 1 mps 746 mmHg 82%
04:00 +8°C° 0 mm 1 mps 746 mmHg 82%
05:00 +8°C° 0 mm 1 mps 746 mmHg 82%
06:00 +8°C° 0 mm 1 mps 746 mmHg 82%
07:00 +8°C° 0 mm 1 mps 746 mmHg 82%
08:00 +9°C° 0 mm 2 mps 746 mmHg 77%
09:00 +10°C° 0 mm 2 mps 746 mmHg 71%
10:00 +13°C° 0 mm 2 mps 746 mmHg 66%
11:00 +14°C° 0 mm 2 mps 746 mmHg 61%
12:00 +15°C° 0 mm 2 mps 746 mmHg 57%
13:00 +15°C° 0 mm 2 mps 746 mmHg 52%
14:00 +16°C° 0 mm 2 mps 745 mmHg 52%
15:00 +16°C° 0 mm 2 mps 745 mmHg 52%
16:00 +16°C° 0 mm 2 mps 745 mmHg 52%
17:00 +14°C° 0 mm 2 mps 745 mmHg 59%
18:00 +13°C° 0 mm 2 mps 745 mmHg 66%
19:00 +10°C° 0 mm 2 mps 745 mmHg 72%
20:00 +9°C° 0 mm 2 mps 745 mmHg 75%
21:00 +9°C° 0 mm 2 mps 745 mmHg 78%
22:00 +8°C° 0 mm 2 mps 745 mmHg 81%
23:00 +8°C° 0 mm 2 mps 745 mmHg 83%
Show more